CW7911 Weather Reports


time (UTC)temp
C
wind
direction
speed
KPH
gust
KPH
rain 1hr
cm
rain 24hr
cm
rain mn
cm
humidity
%
barometer
mb
20260905032331 15 295 0.0 0.0 0.00 0.00 0.00 92 1019.3
20260905031826 15 295 0.0 0.0 0.00 0.00 0.00 91 1019.5
20260905031321 15 295 0.0 0.0 0.00 0.00 0.00 91 1019.6
20260905030816 15 295 0.0 0.0 0.00 0.00 0.00 91 1019.6
20260905030312 15 295 0.0 0.0 0.00 0.00 0.00 90 1019.5
20260905025811 15 295 0.0 0.0 0.00 0.00 0.00 90 1019.6
20260905025306 16 295 0.0 0.0 0.00 0.00 0.00 90 1019.6
20260905024803 16 295 0.0 0.0 0.00 0.00 0.00 89 1019.6
20260905024258 16 295 0.0 0.0 0.00 0.00 0.00 89 1019.4
20260905023752 16 295 0.0 0.0 0.00 0.00 0.00 89 1019.7
20260905023242 16 295 0.0 0.0 0.00 0.00 0.00 89 1019.5
20260905022741 16 295 0.0 0.0 0.00 0.00 0.00 88 1019.6
20260905022237 16 295 0.0 0.0 0.00 0.00 0.00 88 1019.6
20260905021731 16 295 0.0 0.0 0.00 0.00 0.00 88 1019.7
20260905021226 16 295 0.0 0.0 0.00 0.00 0.00 88 1019.9
20260905020721 16 295 0.0 0.0 0.00 0.00 0.00 88 1019.7
20260905020216 16 295 0.0 0.0 0.00 0.00 0.00 88 1020.0
20260905015714 16 295 0.0 0.0 0.00 0.00 0.00 88 1019.9
20260905015209 17 295 0.0 0.0 0.00 0.00 0.00 87 1020.1
20260905014707 17 295 0.0 0.0 0.00 0.00 0.00 87 1019.8
20260905014203 17 295 0.0 0.0 0.00 0.00 0.00 87 1019.6
20260905013659 17 295 0.0 0.0 0.00 0.00 0.00 86 1019.9
20260905013155 17 295 0.0 0.0 0.00 0.00 0.00 86 1019.9
20260905012650 17 295 0.0 0.0 0.00 0.00 0.00 85 1019.9
20260905012146 17 295 0.0 0.0 0.00 0.00 0.00 85 1019.9
20260905011643 17 295 0.0 0.0 0.00 0.00 0.00 85 1019.8
20260905011138 17 295 0.0 0.0 0.00 0.00 0.00 85 1019.9
20260905010632 17 295 0.0 0.0 0.00 0.00 0.00 85 1020.0
20260905010128 17 295 0.0 0.0 0.00 0.00 0.00 86 1019.9
20260905005624 18 295 0.0 0.0 0.00 0.00 0.00 86 1019.9
20260905005119 18 295 0.0 0.0 0.00 0.00 0.00 85 1019.8
20260905004614 18 295 0.0 0.0 0.00 0.00 0.00 84 1019.5
20260905004109 18 295 0.0 0.0 0.00 0.00 0.00 84 1019.7
20260905003604 18 295 0.0 0.0 0.00 0.00 0.00 84 1019.7
20260905003100 18 295 0.0 0.0 0.00 0.00 0.00 84 1020.0
20260905002555 18 295 0.0 0.0 0.00 0.00 0.00 83 1019.6
20260905002050 18 295 0.0 0.0 0.00 0.00 0.00 83 1019.9
20260905001545 18 295 0.0 0.0 0.00 0.00 0.00 83 1019.8
20260905001045 18 295 0.0 0.0 0.00 0.00 0.00 85 1019.7
20260905000540 18 295 0.0 0.0 0.00 0.00 0.00 85 1019.6
20260905000036 18 295 0.0 0.0 0.00 0.00 0.00 83 1019.6
20260904235531 18 295 0.0 0.0 0.00 0.00 0.00 81 1019.7
20260904235031 18 295 0.0 0.0 0.00 0.00 0.00 80 1019.6
20260904234530 19 295 0.0 0.0 0.00 0.00 0.00 80 1019.6
20260904234027 19 295 0.0 0.0 0.00 0.00 0.00 79 1019.6
20260904233521 19 295 0.0 0.0 0.00 0.00 0.00 79 1019.3
20260904233018 19 295 0.0 0.0 0.00 0.00 0.00 79 1019.5
20260904232514 19 295 0.0 0.0 0.00 0.00 0.00 79 1019.4
20260904232010 20 295 0.0 0.0 0.00 0.00 0.00 79 1019.4
20260904231506 20 295 0.0 0.0 0.00 0.00 0.00 78 1019.2
20260904231001 20 295 0.0 0.0 0.00 0.00 0.00 78 1019.3
20260904230459 20 295 0.0 0.0 0.00 0.00 0.00 78 1019.4
20260904225955 20 295 0.0 0.0 0.00 0.00 0.00 80 1019.3
20260904225452 20 295 0.0 0.0 0.00 0.00 0.00 77 1019.3
20260904224946 20 295 0.0 0.0 0.00 0.00 0.00 77 1019.2
20260904224443 21 295 1.6 3.2 0.00 0.00 0.00 76 1019.4
20260904223942 21 295 0.0 4.8 0.00 0.00 0.00 75 1019.0
20260904223441 21 295 0.0 0.0 0.00 0.00 0.00 74 1019.1
20260904222937 21 295 0.0 0.0 0.00 0.00 0.00 74 1019.0
20260904222433 21 295 0.0 0.0 0.00 0.00 0.00 73 1019.2
20260904221932 21 295 0.0 0.0 0.00 0.00 0.00 71 1019.0
20260904221427 21 295 0.0 0.0 0.00 0.00 0.00 69 1019.3
20260904220923 21 295 0.0 0.0 0.00 0.00 0.00 68 1018.9
20260904220422 22 295 0.0 3.2 0.00 0.00 0.00 66 1019.3
20260904215917 22 295 0.0 0.0 0.00 0.00 0.00 65 1019.2
20260904215412 22 295 0.0 3.2 0.00 0.00 0.00 66 1019.2
20260904214908 22 295 1.6 4.8 0.00 0.00 0.00 63 1019.2
20260904214404 22 295 0.0 0.0 0.00 0.00 0.00 71 1019.3
20260904213902 22 295 0.0 0.0 0.00 0.00 0.00 64 1019.1
20260904213357 22 295 0.0 0.0 0.00 0.00 0.00 66 1019.0
20260904212853 22 295 0.0 1.6 0.00 0.00 0.00 63 1018.7
20260904212352 22 295 0.0 0.0 0.00 0.00 0.00 66 1019.1
20260904211848 22 295 0.0 0.0 0.00 0.00 0.00 65 1019.2
20260904211343 22 295 0.0 0.0 0.00 0.00 0.00 64 1019.1
20260904210838 22 295 0.0 1.6 0.00 0.00 0.00 68 1019.3
20260904210332 23 295 0.0 1.6 0.00 0.00 0.00 66 1019.1
20260904205829 23 295 0.0 0.0 0.00 0.00 0.00 66 1019.3
20260904205324 23 295 0.0 1.6 0.00 0.00 0.00 62 1018.9
20260904204821 23 295 1.6 3.2 0.00 0.00 0.00 59 1018.9
20260904204316 23 295 0.0 0.0 0.00 0.00 0.00 65 1019.1
20260904203812 23 295 0.0 1.6 0.00 0.00 0.00 59 1018.9
20260904203308 24 295 1.6 1.6 0.00 0.00 0.00 62 1018.9
20260904202804 24 295 3.2 4.8 0.00 0.00 0.00 59 1019.1
20260904202300 25 295 0.0 1.6 0.00 0.00 0.00 61 1018.8
20260904201756 25 295 0.0 3.2 0.00 0.00 0.00 57 1019.0
20260904201255 25 295 0.0 3.2 0.00 0.00 0.00 59 1018.7
20260904200750 25 295 1.6 4.8 0.00 0.00 0.00 55 1018.6
20260904200244 25 295 0.0 3.2 0.00 0.00 0.00 56 1018.9
20260904195743 25 295 0.0 1.6 0.00 0.00 0.00 60 1019.0
20260904195242 24 295 0.0 1.6 0.00 0.00 0.00 59 1018.9
20260904194737 23 295 1.6 3.2 0.00 0.00 0.00 60 1019.0
20260904194236 22 295 0.0 0.0 0.00 0.00 0.00 66 1019.0
20260904193732 23 295 0.0 0.0 0.00 0.00 0.00 62 1018.7
20260904193228 23 250 0.0 0.0 0.00 0.00 0.00 65 1018.9
20260904192723 23 250 0.0 1.6 0.00 0.00 0.00 67 1018.8
20260904192218 22 250 0.0 0.0 0.00 0.00 0.00 73 1019.0
20260904191715 22 250 0.0 0.0 0.00 0.00 0.00 77 1019.0
20260904191211 22 250 0.0 0.0 0.00 0.00 0.00 77 1019.1
20260904190707 22 250 0.0 0.0 0.00 0.00 0.00 77 1019.0
20260904190203 22 250 0.0 0.0 0.00 0.00 0.00 75 1019.2
20260904185659 22 250 0.0 0.0 0.00 0.00 0.00 72 1019.4
20260904185153 22 250 0.0 0.0 0.00 0.00 0.00 72 1019.4
20260904184652 23 250 0.0 1.6 0.00 0.00 0.00 70 1019.3
20260904184148 23 150 0.0 0.0 0.00 0.00 0.00 69 1019.2
20260904183643 24 150 0.0 1.6 0.00 0.00 0.00 71 1019.1
20260904183137 23 150 0.0 0.0 0.00 0.00 0.00 73 1019.1
20260904182633 23 150 0.0 0.0 0.00 0.00 0.00 71 1019.0
20260904182128 24 150 0.0 0.0 0.00 0.00 0.00 73 1018.8
20260904181623 24 150 0.0 1.6 0.00 0.00 0.00 70 1019.1
20260904181118 23 150 0.0 0.0 0.00 0.00 0.00 71 1018.7
20260904180613 23 150 0.0 0.0 0.00 0.00 0.00 73 1019.2
20260904180108 23 150 0.0 4.8 0.00 0.00 0.00 67 1019.1
20260904175602 23 150 0.0 0.0 0.00 0.00 0.00 69 1019.2
20260904175100 23 150 0.0 4.8 0.00 0.00 0.00 71 1019.1
20260904174555 23 150 0.0 0.0 0.00 0.00 0.00 81 1019.0
20260904174052 23 150 0.0 1.6 0.00 0.00 0.00 80 1019.1
20260904173551 23 150 0.0 0.0 0.00 0.00 0.00 73 1019.1
20260904173047 23 150 0.0 0.0 0.00 0.00 0.00 76 1019.1
20260904172543 23 150 0.0 0.0 0.00 0.00 0.00 75 1019.3
20260904172042 23 150 0.0 0.0 0.00 0.00 0.00 79 1019.2
20260904171537 23 150 0.0 0.0 0.00 0.00 0.00 76 1019.2
20260904171033 23 150 0.0 0.0 0.00 0.00 0.00 76 1019.5
20260904170528 23 150 0.0 1.6 0.00 0.00 0.00 78 1019.6
20260904170025 22 150 0.0 0.0 0.00 0.00 0.00 81 1019.5
20260904165523 22 150 0.0 0.0 0.00 0.00 0.00 84 1019.6
20260904165023 23 150 0.0 0.0 0.00 0.00 0.00 79 1019.7
20260904164518 23 150 0.0 0.0 0.00 0.00 0.00 81 1019.7
20260904164014 22 150 0.0 0.0 0.00 0.00 0.00 82 1019.6
20260904163513 22 150 0.0 0.0 0.00 0.00 0.00 82 1019.6
20260904163008 22 150 0.0 0.0 0.00 0.00 0.00 81 1019.8
20260904162503 22 150 0.0 0.0 0.00 0.00 0.00 83 1019.8
20260904161958 22 150 0.0 0.0 0.00 0.00 0.00 82 1019.8
20260904161453 22 150 0.0 0.0 0.00 0.00 0.00 82 1019.9
20260904160949 22 150 0.0 0.0 0.00 0.00 0.00 82 1019.9
20260904160443 22 150 0.0 0.0 0.00 0.00 0.00 82 1019.8
20260904155938 22 150 0.0 0.0 0.00 0.00 0.00 79 1020.1
20260904155433 22 150 0.0 0.0 0.00 0.00 0.00 81 1020.0
20260904154932 21 150 0.0 0.0 0.00 0.00 0.00 82 1020.0
20260904154427 22 150 0.0 1.6 0.00 0.00 0.00 82 1020.1
20260904153922 23 150 0.0 1.6 0.00 0.00 0.00 79 1020.1
20260904153417 22 150 0.0 0.0 0.00 0.00 0.00 79 1020.3
20260904152913 22 150 0.0 0.0 0.00 0.00 0.00 78 1020.3
20260904152408 21 150 0.0 1.6 0.00 0.00 0.00 78 1020.4
20260904151907 22 150 0.0 1.6 0.00 0.00 0.00 79 1020.4
20260904151402 22 150 0.0 0.0 0.00 0.00 0.00 81 1020.3
20260904150858 20 150 0.0 1.6 0.00 0.00 0.00 82 1020.3
20260904150353 21 150 0.0 0.0 0.00 0.00 0.00 82 1020.5
20260904145850 20 150 0.0 0.0 0.00 0.00 0.00 84 1020.3
20260904145347 20 150 0.0 0.0 0.00 0.00 0.00 89 1020.5
20260904144842 18 150 0.0 0.0 0.00 0.00 0.00 90 1020.5
20260904144338 19 150 0.0 0.0 0.00 0.00 0.00 90 1020.6
20260904143833 18 150 0.0 0.0 0.00 0.00 0.00 92 1020.6
20260904143330 18 150 0.0 0.0 0.00 0.00 0.00 93 1020.8
20260904142826 18 150 0.0 0.0 0.00 0.00 0.00 94 1020.6
20260904142321 18 150 0.0 0.0 0.00 0.00 0.00 94 1020.6
20260904141816 17 150 0.0 0.0 0.00 0.00 0.00 94 1020.6
20260904141311 17 150 0.0 0.0 0.00 0.00 0.00 94 1020.8
20260904140808 17 150 0.0 0.0 0.00 0.00 0.00 94 1020.9
20260904140302 17 150 0.0 0.0 0.00 0.00 0.00 94 1020.7
20260904135801 17 150 0.0 0.0 0.00 0.00 0.00 94 1020.8
20260904135256 17 150 0.0 0.0 0.00 0.00 0.00 94 1020.7
20260904134752 17 150 0.0 0.0 0.00 0.00 0.00 94 1020.4
20260904134252 17 150 0.0 0.0 0.00 0.00 0.00 94 1020.7
20260904133747 17 150 0.0 0.0 0.00 0.00 0.00 94 1020.5
20260904133243 17 150 0.0 0.0 0.00 0.00 0.00 94 1020.6
20260904132742 17 150 0.0 0.0 0.00 0.00 0.00 94 1020.6
20260904132238 17 150 0.0 0.0 0.00 0.00 0.00 94 1020.6
20260904131736 17 150 0.0 0.0 0.00 0.00 0.00 94 1020.6
20260904131232 17 150 0.0 0.0 0.00 0.00 0.00 94 1020.7
20260904130727 17 150 0.0 0.0 0.00 0.00 0.00 94 1020.7
20260904130226 17 150 0.0 1.6 0.00 0.00 0.00 94 1020.8
20260904125722 16 150 0.0 1.6 0.00 0.00 0.00 94 1020.5
20260904125217 16 150 0.0 0.0 0.00 0.00 0.00 94 1020.7
20260904124712 16 150 0.0 0.0 0.00 0.00 0.00 94 1020.7
20260904124208 16 150 0.0 0.0 0.00 0.00 0.00 94 1020.8
20260904123702 16 150 0.0 1.6 0.00 0.00 0.00 94 1020.6
20260904123158 16 150 0.0 0.0 0.00 0.00 0.00 94 1020.8
20260904122653 16 150 0.0 0.0 0.00 0.00 0.00 94 1020.7
20260904122147 16 150 0.0 1.6 0.00 0.00 0.00 94 1020.8
20260904121642 16 150 0.0 0.0 0.00 0.00 0.00 94 1020.8
20260904121138 16 150 0.0 1.6 0.00 0.00 0.00 94 1020.6
20260904120635 16 150 0.0 0.0 0.00 0.00 0.00 94 1020.5
20260904120131 16 150 0.0 0.0 0.00 0.00 0.00 94 1020.7
20260904115631 16 150 0.0 0.0 0.00 0.00 0.00 94 1020.6
20260904115126 16 150 0.0 0.0 0.00 0.00 0.00 94 1020.6
20260904114620 16 150 0.0 0.0 0.00 0.00 0.00 94 1020.9
20260904114114 15 150 0.0 1.6 0.00 0.00 0.00 94 1020.7
20260904113609 16 150 0.0 0.0 0.00 0.00 0.00 94 1020.7
20260904113108 16 150 0.0 0.0 0.00 0.00 0.00 94 1020.6
20260904112603 16 150 0.0 0.0 0.00 0.00 0.00 94 1020.5
20260904112100 16 150 0.0 0.0 0.00 0.00 0.00 94 1020.7
20260904111554 16 150 0.0 0.0 0.00 0.00 0.00 94 1020.5
20260904111050 16 150 0.0 0.0 0.00 0.00 0.00 94 1020.8
20260904110544 15 150 0.0 0.0 0.00 0.00 0.00 94 1020.6
20260904110040 15 150 0.0 0.0 0.00 0.00 0.00 94 1020.4
20260904105539 15 150 0.0 0.0 0.00 0.00 0.00 94 1020.6
20260904105034 16 150 0.0 0.0 0.00 0.00 0.00 94 1020.4
20260904104530 16 150 0.0 0.0 0.00 0.00 0.00 94 1020.5
20260904104026 16 150 0.0 0.0 0.00 0.00 0.00 94 1020.4
20260904103521 16 150 0.0 0.0 0.00 0.00 0.00 94 1020.6
20260904103017 16 150 0.0 0.0 0.00 0.00 0.00 94 1020.6
20260904102513 16 150 0.0 0.0 0.00 0.00 0.00 94 1020.4
20260904102008 16 150 0.0 0.0 0.00 0.00 0.00 94 1020.3
20260904101505 16 150 0.0 0.0 0.00 0.00 0.00 94 1020.1
20260904101000 16 150 0.0 0.0 0.00 0.00 0.00 94 1020.2
20260904100456 16 150 0.0 0.0 0.00 0.00 0.00 94 1020.4
20260904095955 16 150 0.0 0.0 0.00 0.00 0.00 94 1020.3
20260904095450 16 150 0.0 0.0 0.00 0.00 0.00 94 1020.4
20260904094945 16 150 0.0 0.0 0.00 0.00 0.00 94 1020.3
20260904094440 16 150 0.0 0.0 0.00 0.00 0.00 94 1020.3
20260904093936 16 150 0.0 0.0 0.00 0.00 0.00 94 1020.5
20260904093432 16 150 0.0 0.0 0.00 0.00 0.00 94 1020.3
20260904092927 16 150 0.0 0.0 0.00 0.00 0.00 94 1020.1
20260904092424 16 150 0.0 0.0 0.00 0.00 0.00 94 1020.2
20260904091919 16 150 0.0 0.0 0.00 0.00 0.00 94 1020.5
20260904091414 16 150 0.0 0.0 0.00 0.00 0.00 94 1020.1
20260904090903 16 150 0.0 0.0 0.00 0.00 0.00 94 1020.1
20260904090359 16 150 0.0 0.0 0.00 0.00 0.00 94 1020.2
20260904085854 16 150 0.0 0.0 0.00 0.00 0.00 94 1020.0
20260904085350 16 150 0.0 0.0 0.00 0.00 0.00 94 1019.9
20260904084850 16 150 0.0 0.0 0.00 0.00 0.00 94 1020.2
20260904084346 16 150 0.0 0.0 0.00 0.00 0.00 94 1020.4
20260904083841 16 150 0.0 0.0 0.00 0.00 0.00 94 1020.2
20260904083338 16 150 0.0 0.0 0.00 0.00 0.00 94 1020.0
20260904082833 16 150 0.0 0.0 0.00 0.00 0.00 94 1020.3
20260904082327 16 150 0.0 0.0 0.00 0.00 0.00 94 1020.1
20260904081823 16 150 0.0 0.0 0.00 0.00 0.00 94 1020.4
20260904081318 16 150 0.0 0.0 0.00 0.00 0.00 94 1020.4
20260904080814 16 150 0.0 0.0 0.00 0.00 0.00 94 1020.4
20260904080309 16 150 0.0 0.0 0.00 0.00 0.00 94 1020.4
20260904075806 16 150 0.0 0.0 0.00 0.00 0.00 94 1020.5
20260904075300 16 150 0.0 0.0 0.00 0.00 0.00 94 1020.4
20260904074759 16 150 0.0 0.0 0.00 0.00 0.00 94 1020.4
20260904074254 16 150 0.0 3.2 0.00 0.00 0.00 94 1020.2
20260904073750 16 150 0.0 0.0 0.00 0.00 0.00 94 1020.5
20260904073245 16 150 0.0 0.0 0.00 0.00 0.00 94 1020.6
20260904072742 16 150 0.0 0.0 0.00 0.00 0.00 94 1020.6
20260904072235 16 150 0.0 0.0 0.00 0.00 0.00 94 1020.6
20260904071732 16 150 0.0 0.0 0.00 0.00 0.00 94 1020.7
20260904071231 16 150 0.0 0.0 0.00 0.00 0.00 94 1021.0
20260904070726 16 150 0.0 0.0 0.00 0.00 0.00 94 1020.7
20260904070225 16 150 0.0 0.0 0.00 0.00 0.00 94 1020.6
20260904065720 16 150 0.0 0.0 0.00 0.00 0.00 94 1020.6
20260904065217 16 150 0.0 0.0 0.00 0.00 0.00 94 1020.7
20260904064716 16 150 0.0 0.0 0.00 0.00 0.00 94 1020.8
20260904064212 16 150 0.0 0.0 0.00 0.00 0.00 94 1020.9
20260904063708 16 150 0.0 0.0 0.00 0.00 0.00 94 1021.0
20260904063203 16 150 0.0 0.0 0.00 0.00 0.00 94 1020.7
20260904062700 16 150 0.0 0.0 0.00 0.00 0.00 94 1020.9
20260904062155 16 150 0.0 0.0 0.00 0.00 0.00 94 1021.1
20260904061650 16 150 0.0 0.0 0.00 0.00 0.00 94 1021.2
20260904061147 15 150 0.0 0.0 0.00 0.00 0.00 94 1021.2
20260904060643 15 150 0.0 0.0 0.00 0.00 0.00 94 1021.2
20260904060138 15 150 0.0 0.0 0.00 0.00 0.00 94 1021.0
20260904055633 15 150 0.0 0.0 0.00 0.00 0.00 94 1021.3
20260904055128 15 150 0.0 0.0 0.00 0.00 0.00 94 1021.4
20260904054623 15 150 0.0 0.0 0.00 0.00 0.00 94 1021.4
20260904054120 15 150 0.0 0.0 0.00 0.00 0.00 94 1021.6
20260904053614 15 150 0.0 0.0 0.00 0.00 0.00 94 1021.5
20260904053109 15 150 0.0 0.0 0.00 0.00 0.00 94 1021.7
20260904052606 15 150 0.0 0.0 0.00 0.00 0.00 94 1021.8
20260904052101 15 150 0.0 0.0 0.00 0.00 0.00 94 1021.8
20260904051557 15 150 0.0 0.0 0.00 0.00 0.00 94 1021.9
20260904051056 15 150 0.0 0.0 0.00 0.00 0.00 94 1021.9
20260904050553 15 150 0.0 0.0 0.00 0.00 0.00 94 1021.9
20260904050049 15 150 0.0 0.0 0.00 0.00 0.00 94 1021.9
20260904045543 15 150 0.0 0.0 0.00 0.00 0.00 94 1022.1
20260904045038 15 150 0.0 0.0 0.00 0.00 0.00 94 1022.1
20260904044534 15 150 0.0 0.0 0.00 0.00 0.00 94 1022.2
20260904044030 15 150 0.0 0.0 0.00 0.00 0.00 94 1021.9
20260904043526 15 150 0.0 0.0 0.00 0.00 0.00 94 1021.9
20260904043022 15 150 0.0 0.0 0.00 0.00 0.00 94 1021.9
20260904042518 15 150 0.0 0.0 0.00 0.00 0.00 94 1021.9
20260904042013 15 150 0.0 0.0 0.00 0.00 0.00 94 1022.1
20260904041509 15 150 0.0 0.0 0.00 0.00 0.00 94 1022.3
20260904041004 15 150 0.0 0.0 0.00 0.00 0.00 94 1022.1
20260904040459 15 150 0.0 0.0 0.00 0.00 0.00 94 1022.3
20260904035955 15 150 0.0 0.0 0.00 0.48 0.48 94 1022.3
20260904035451 15 150 0.0 0.0 0.00 0.48 0.48 94 1022.4
20260904034950 15 150 0.0 0.0 0.00 0.48 0.48 94 1022.6
20260904034445 15 150 0.0 0.0 0.00 0.48 0.48 94 1022.6
20260904033941 15 150 0.0 0.0 0.00 0.48 0.48 94 1022.5
20260904033437 15 150 0.0 0.0 0.00 0.48 0.48 94 1022.6
20260904032933 15 150 0.0 0.0 0.00 0.48 0.48 94 1022.7